Retour au catalogue

YAOGAN 30

ActifMilitaireSSO
NORAD 41473·PAYLOAD·🇨🇳 China

Lancé May 15, 2016 depuis Jiuquan Satellite Launch Center

Loading…

Prochains Passages (prochaines 24 heures)

TLE

FraisSource: Space-Track

Époque: Sep 14, 2026, 14:57 UTC

1 41473U 16029A   26257.62334821  .00000078  00000-0  18589-4 0  9998
2 41473  97.8925 305.5438 0014600 306.8291  53.1579 14.76240498556864

Suivez YAOGAN 30 en temps réel avec AllMySat

Download on the App Store